Wind_Speed
22 23 23 23 22 22 22 22 22 22 21 21 21 21 21 21 21 20 20 20 19 19 19 18 17 17 16 16 16 15 14 14 14 14 14 14 14 14 14 15 15 16 16
24 25 25 25 24 24 24 24 24 23 23 22 22 22 22 22 22 22 22 21 21 21 21 20 20 19 19 18 18 17 17 16 17 17 17 17 17 17 17 17 17 18 19
27 26 26 26 26 26 26 26 26 25 24 24 24 24 23 23 23 24 24 23 23 22 22 22 22 21 20 20 20 20 20 20 20 20 20 20 20 19 19 20 20 21 22
26 27 27 27 28 27 28 28 28 27 26 25 25 25 24 25 25 25 25 25 25 24 25 24 24 23 23 23 22 22 22 23 23 23 23 22 23 23 23 23 24 25 25
26 27 28 28 29 29 29 30 29 29 28 28 27 26 26 26 26 26 26 26 26 26 27 27 25 25 25 25 24 24 24 24 25 25 25 25 25 26 26 26 27 28 29
27 28 29 30 30 29 30 30 30 30 30 29 28 27 27 28 27 27 27 27 27 27 28 27 26 26 26 26 26 26 26 26 26 26 27 27 27 28 29 29 30 31 32
28 28 28 29 31 31 31 32 31 31 30 30 30 29 28 28 28 28 28 28 29 28 29 29 29 28 28 27 28 28 28 29 29 29 29 30 31 31 31 32 33 34 34
29 29 29 29 30 31 32 33 33 32 31 31 31 31 30 30 29 29 30 30 31 31 32 32 31 30 30 30 30 31 31 32 32 33 33 34 34 34 34 35 35 36 37
29 29 30 31 31 31 31 32 32 32 32 31 32 31 31 30 31 31 31 31 32 32 32 34 34 33 33 32 32 33 34 35 35 35 36 36 37 37 37 37 38 38 39
30 31 31 31 32 32 32 32 32 32 32 32 32 33 32 31 31 31 32 33 32 33 33 34 35 35 35 35 35 36 36 36 36 36 37 38 38 39 39 39 39 39 39
30 31 31 32 32 32 33 33 33 32 31 32 32 32 32 32 31 31 31 32 33 33 34 34 35 36 37 37 37 38 37 38 38 38 39 39 40 40 40 40 40 40 41
30 30 31 32 32 32 32 32 31 31 31 31 32 32 31 31 32 31 31 33 33 34 35 36 36 37 38 38 39 38 38 38 39 39 40 40 40 40 39 39 40 40 41
29 30 30 31 32 32 31 31 31 31 31 32 32 32 31 30 32 32 32 33 34 34 34 34 35 36 36 37 38 39 39 39 39 39 39 39 39 39 39 39 40 41 41
29 29 30 30 30 31 31 31 32 31 32 32 32 32 32 32 33 33 33 33 35 35 34 35 35 36 37 38 38 38 38 37 37 38 37 37 38 39 39 39 40 40 41
31 30 29 28 29 29 31 31 32 32 33 33 33 33 33 33 33 34 34 34 34 35 35 35 36 37 37 38 38 37 36 37 37 36 36 36 37 38 38 39 40 41 41
30 30 29 29 29 29 31 32 31 31 32 33 34 34 34 34 35 35 35 35 34 35 35 36 37 38 37 37 37 37 37 37 37 37 38 38 38 38 39 40 41 41 42
29 29 28 29 29 29 30 30 31 31 31 33 34 34 35 35 35 34 35 35 35 35 35 36 37 37 37 36 37 37 37 37 37 37 38 38 39 39 39 40 41 41 40
28 27 27 27 28 28 28 29 29 31 31 31 32 32 32 33 33 32 34 34 34 35 36 37 37 36 36 36 36 36 36 37 37 37 38 38 38 39 39 39 39 39 39
26 26 26 26 26 26 27 28 29 29 30 30 30 30 31 31 31 32 32 33 33 34 35 35 35 35 35 34 35 36 37 36 37 37 38 38 38 38 39 39 38 37 37
25 25 26 26 25 26 27 27 27 28 29 29 29 29 29 30 30 31 30 31 32 34 35 35 35 35 35 35 35 36 36 36 36 36 36 36 37 37 37 36 36 34 33
23 23 23 23 24 24 25 25 26 26 26 27 28 28 28 29 29 29 29 30 31 31 32 32 33 34 34 34 34 34 34 34 34 34 34 34 35 35 34 33 32 31 29
19 20 20 21 20 21 22 22 23 24 24 25 26 27 28 28 28 28 29 29 28 29 30 30 31 31 32 32 32 32 32 32 32 32 32 32 32 32 31 29 28 27 26
17 17 17 18 18 19 19 20 21 21 21 23 24 24 25 25 25 25 26 27 28 29 29 29 29 29 29 30 30 30 30 30 30 30 30 30 29 28 27 26 25 24 23
13 14 14 15 16 16 16 17 17 18 18 19 20 20 21 21 22 23 24 25 25 26 26 26 27 27 27 27 27 27 27 27 27 27 26 26 25 24 23 23 22 21 20
10 11 11 12 13 13 12 13 14 15 15 16 16 17 18 19 20 20 20 21 22 22 23 23 24 24 24 24 24 24 23 23 23 22 22 22 21 20 20 19 18 18 17
7 7 7 8 9 9 10 10 11 12 13 13 14 14 14 15 15 16 17 18 18 19 19 20 20 20 21 21 21 20 20 19 19 19 19 18 18 18 17 17 16 16 15
Wind_Direction
253 253 251 251 253 254 254 255 251 251 252 251 250 249 249 249 249 248 249 249 250 249 248 251 252 252 255 257 256 258 260 262 264 266 267 268 268 268 268 268 269 271 272
253 253 253 252 252 254 255 255 255 255 253 252 252 251 251 249 248 250 250 250 249 249 249 250 253 254 256 256 257 259 260 262 263 267 268 269 269 267 268 268 268 271 272
254 253 254 254 252 254 255 256 256 254 254 252 253 254 254 251 250 250 252 252 251 251 250 251 253 255 257 257 258 260 261 262 265 266 268 270 269 268 269 269 270 271 273
257 255 254 254 254 254 255 255 254 253 254 254 253 252 253 252 251 250 251 252 253 252 252 252 253 255 257 257 259 261 262 264 265 266 267 269 269 269 270 271 272 273 274
259 260 256 255 255 254 254 254 253 253 254 254 253 252 252 251 251 251 251 252 254 254 254 253 254 257 256 257 259 261 261 264 265 266 266 267 269 269 270 271 272 274 274
258 256 258 256 254 253 252 252 253 253 253 254 254 253 253 251 249 251 252 251 251 253 253 252 253 254 254 256 258 259 261 264 266 267 267 268 270 271 272 272 273 274 274
258 259 261 259 255 253 252 252 253 252 254 254 254 254 253 251 250 252 252 249 249 249 250 249 250 252 255 257 258 259 262 264 265 267 268 270 271 273 274 275 275 276 276
259 260 260 259 257 255 253 255 252 251 253 254 254 255 253 251 252 253 253 251 249 249 249 249 250 252 253 255 258 261 264 266 265 266 268 270 271 272 274 275 276 276 276
259 259 258 257 256 255 255 253 251 252 253 253 253 253 251 252 253 253 253 250 248 247 249 250 251 253 253 256 259 262 265 266 266 268 270 271 271 272 273 275 276 275 276
263 262 261 259 254 254 253 252 251 250 251 252 252 250 249 250 252 253 251 248 248 248 249 251 252 252 255 256 259 262 264 265 266 270 272 271 272 273 274 276 277 277 278
263 262 260 259 256 254 252 252 250 250 251 253 253 251 250 249 251 252 250 247 248 251 251 253 254 254 256 258 261 263 266 266 268 270 271 272 273 274 274 275 276 278 280
262 263 263 261 259 255 252 253 252 251 251 251 251 251 251 251 251 251 250 249 249 252 253 255 256 256 257 258 260 263 266 267 268 268 270 272 273 274 274 276 278 280 281
263 263 264 261 259 255 252 253 253 251 251 250 250 249 249 251 251 251 252 250 250 253 255 256 257 257 259 260 261 263 265 267 269 270 272 273 274 275 276 278 280 281 282
264 263 262 261 256 254 253 252 252 252 250 249 248 248 249 250 251 251 252 252 253 256 257 258 258 259 263 263 264 266 268 269 269 271 273 275 275 276 277 279 281 282 283
266 265 262 260 256 255 252 251 250 250 251 249 248 249 250 250 252 251 251 253 255 258 259 259 262 264 265 266 267 269 269 269 272 273 274 275 275 277 278 280 282 283 285
267 266 262 261 258 254 252 249 250 251 252 251 250 250 251 252 253 253 252 252 253 255 258 262 263 264 265 268 269 271 273 274 275 275 275 276 278 280 282 284 286 286 288
266 266 262 262 260 258 255 253 252 252 253 253 251 251 252 253 253 254 252 251 251 254 258 259 261 262 264 266 268 271 273 274 274 275 276 278 281 283 285 286 286 288 289
265 264 263 262 259 258 257 255 253 253 254 254 252 252 253 253 252 252 251 250 252 254 257 260 260 261 264 268 271 273 275 275 277 279 281 283 285 286 286 286 287 288 290
263 261 262 261 258 257 257 256 254 255 255 254 253 253 254 255 254 252 252 253 254 255 258 259 261 264 268 270 272 275 277 279 282 283 284 285 286 287 288 288 289 290 290
264 262 261 259 257 257 258 257 258 257 256 255 254 255 255 255 255 253 252 254 254 255 258 260 263 266 269 271 273 276 278 280 282 283 284 286 287 288 288 289 290 290 291
263 262 261 261 260 259 260 260 259 258 257 255 254 254 254 253 256 255 255 255 255 258 260 262 265 267 270 273 274 277 280 281 282 284 286 287 287 288 288 289 290 292 291
264 263 262 262 261 262 261 260 258 257 255 253 253 254 254 256 258 258 258 257 259 263 265 266 268 270 272 274 276 278 280 281 283 284 286 286 287 288 289 290 291 292 291
266 264 264 261 260 259 258 259 260 258 257 255 256 257 257 258 258 259 261 263 264 266 267 268 270 273 274 275 276 277 279 281 282 283 284 285 285 287 289 290 291 290 290
269 268 264 258 256 257 256 257 258 259 261 261 259 258 260 264 263 262 263 265 267 268 270 272 272 273 274 276 278 279 279 280 281 282 282 283 284 286 288 289 289 288 288
269 265 257 254 256 257 257 255 256 258 260 260 260 262 263 265 264 263 265 267 267 268 270 272 273 274 275 277 278 279 280 280 281 281 283 284 284 285 287 288 288 289 289
272 263 258 255 259 260 260 259 257 257 259 260 263 265 266 267 267 268 271 273 273 274 275 277 277 278 279 279 279 279 280 280 281 282 283 284 285 287 288 287 287 287 287
Height
5872 5872 5873 5874 5874 5875 5876 5876 5877 5878 5879 5879 5880 5881 5882 5882 5883 5884 5885 5886 5887 5888 5889 5890 5890 5891 5891 5892 5892 5893 5893 5893 5893 5893 5893 5893 5893 5892 5892 5892 5892 5892 5891
5866 5867 5868 5869 5869 5870 5871 5871 5872 5873 5874 5875 5876 5876 5877 5878 5879 5880 5881 5881 5882 5883 5885 5886 5886 5887 5887 5888 5888 5889 5889 5889 5890 5890 5890 5889 5889 5889 5888 5888 5888 5888 5887
5861 5861 5862 5863 5864 5865 5866 5866 5867 5868 5869 5870 5871 5871 5872 5873 5874 5875 5876 5877 5878 5879 5880 5881 5882 5882 5883 5883 5884 5885 5885 5885 5885 5885 5885 5885 5885 5885 5884 5884 5883 5883 5882
5854 5855 5856 5857 5858 5859 5860 5861 5862 5863 5863 5864 5865 5866 5866 5867 5869 5870 5871 5872 5873 5874 5875 5876 5877 5877 5878 5879 5879 5880 5880 5880 5880 5880 5881 5880 5880 5880 5880 5879 5878 5878 5877
5848 5849 5849 5850 5851 5852 5853 5855 5855 5857 5857 5858 5859 5860 5861 5862 5863 5864 5866 5866 5867 5868 5869 5870 5871 5872 5872 5873 5874 5874 5875 5875 5875 5875 5875 5875 5874 5874 5874 5873 5872 5872 5871
5841 5841 5842 5842 5844 5845 5847 5848 5849 5850 5851 5852 5853 5854 5855 5856 5857 5859 5860 5861 5862 5863 5864 5864 5865 5866 5867 5867 5868 5869 5869 5869 5869 5869 5869 5869 5868 5868 5867 5866 5865 5864 5863
5834 5834 5834 5835 5836 5838 5839 5841 5842 5843 5844 5846 5847 5848 5849 5850 5851 5853 5853 5855 5856 5857 5858 5859 5859 5860 5861 5861 5862 5863 5863 5863 5863 5863 5863 5862 5862 5861 5860 5859 5858 5857 5855
5826 5827 5828 5828 5829 5831 5832 5834 5835 5836 5838 5839 5840 5841 5843 5844 5845 5846 5847 5848 5849 5850 5851 5852 5853 5854 5854 5855 5856 5856 5856 5856 5856 5855 5855 5854 5854 5853 5852 5851 5850 5848 5847
5819 5820 5820 5821 5822 5823 5824 5826 5828 5829 5831 5832 5833 5834 5836 5837 5838 5839 5840 5841 5842 5843 5844 5845 5846 5847 5848 5849 5849 5849 5849 5849 5848 5847 5847 5846 5846 5845 5844 5843 5841 5840 5838
5812 5812 5813 5813 5814 5815 5817 5819 5820 5821 5823 5824 5825 5827 5829 5829 5831 5832 5833 5834 5835 5836 5837 5838 5839 5840 5841 5841 5841 5842 5841 5841 5840 5840 5839 5838 5837 5836 5835 5833 5832 5830 5829
5804 5805 5805 5805 5806 5807 5808 5810 5812 5813 5814 5816 5818 5819 5820 5822 5823 5824 5825 5827 5828 5829 5830 5831 5831 5832 5832 5833 5833 5833 5833 5833 5832 5831 5830 5829 5828 5827 5825 5824 5822 5821 5819
5797 5797 5797 5797 5797 5798 5800 5802 5804 5805 5807 5808 5810 5811 5813 5814 5816 5817 5818 5819 5820 5821 5822 5823 5823 5824 5824 5824 5825 5825 5824 5824 5823 5822 5821 5820 5818 5817 5816 5814 5813 5811 5809
5790 5790 5790 5790 5790 5791 5792 5794 5796 5798 5799 5801 5802 5804 5805 5807 5808 5809 5810 5811 5812 5813 5814 5814 5815 5815 5816 5816 5816 5816 5815 5814 5814 5813 5812 5811 5809 5808 5807 5805 5803 5801 5799
5783 5783 5783 5783 5783 5784 5785 5786 5788 5790 5791 5793 5794 5796 5797 5799 5800 5801 5802 5803 5804 5805 5806 5806 5807 5807 5808 5808 5807 5807 5806 5806 5805 5804 5803 5802 5800 5799 5797 5796 5794 5792 5790
5775 5775 5775 5775 5776 5777 5777 5779 5780 5782 5784 5785 5786 5788 5790 5791 5792 5794 5795 5796 5797 5798 5798 5799 5799 5799 5799 5799 5798 5798 5798 5797 5796 5795 5794 5793 5791 5790 5788 5786 5784 5782 5779
5767 5767 5768 5768 5769 5769 5770 5771 5773 5774 5776 5777 5778 5780 5782 5783 5785 5786 5787 5788 5789 5790 5790 5791 5791 5791 5790 5790 5790 5789 5789 5788 5787 5786 5785 5784 5782 5781 5779 5777 5774 5772 5769
5760 5760 5760 5761 5761 5762 5763 5764 5765 5767 5768 5769 5771 5772 5774 5775 5776 5778 5779 5780 5781 5782 5782 5782 5782 5782 5782 5782 5782 5781 5780 5779 5778 5777 5776 5775 5773 5772 5769 5767 5765 5762 5759
5752 5752 5753 5753 5754 5755 5756 5757 5758 5759 5760 5762 5763 5764 5766 5767 5768 5770 5771 5772 5773 5773 5774 5774 5774 5774 5774 5774 5773 5772 5771 5770 5770 5768 5767 5766 5764 5762 5760 5757 5755 5752 5750
5744 5745 5745 5746 5747 5748 5748 5749 5750 5751 5753 5754 5755 5757 5758 5759 5760 5761 5762 5763 5764 5765 5766 5766 5766 5766 5765 5765 5765 5764 5763 5762 5761 5759 5758 5756 5754 5752 5750 5748 5746 5743 5741
5737 5738 5738 5739 5739 5740 5741 5742 5743 5744 5745 5746 5748 5749 5750 5752 5753 5753 5754 5755 5756 5757 5758 5758 5758 5758 5757 5757 5756 5756 5755 5754 5752 5751 5749 5747 5745 5743 5741 5739 5737 5735 5732
5730 5731 5731 5732 5732 5733 5734 5735 5736 5737 5738 5739 5741 5742 5743 5744 5745 5746 5747 5748 5748 5749 5749 5749 5750 5750 5749 5749 5748 5747 5746 5745 5743 5742 5740 5739 5737 5735 5733 5731 5728 5726 5724
5724 5724 5725 5725 5726 5727 5727 5728 5729 5731 5731 5732 5733 5734 5735 5736 5737 5738 5739 5740 5741 5741 5742 5742 5742 5742 5741 5741 5740 5739 5738 5737 5736 5734 5732 5730 5729 5727 5725 5723 5721 5719 5717
5719 5719 5719 5720 5721 5721 5722 5723 5724 5725 5725 5726 5727 5728 5729 5729 5730 5731 5732 5732 5733 5734 5734 5735 5734 5734 5734 5733 5732 5731 5730 5729 5727 5726 5724 5723 5721 5719 5717 5716 5714 5712 5711
5715 5715 5715 5716 5716 5717 5717 5718 5719 5719 5720 5720 5721 5722 5723 5723 5724 5724 5725 5726 5726 5726 5727 5727 5727 5726 5726 5725 5725 5724 5722 5721 5720 5718 5717 5716 5714 5712 5711 5710 5708 5706 5705
5711 5711 5712 5712 5712 5713 5713 5714 5714 5715 5715 5716 5716 5717 5718 5718 5718 5718 5719 5719 5720 5720 5720 5720 5719 5719 5718 5718 5717 5717 5716 5715 5713 5712 5711 5710 5708 5707 5706 5704 5703 5701 5700
5708 5709 5709 5709 5709 5710 5710 5710 5711 5711 5712 5712 5712 5713 5713 5713 5713 5713 5714 5714 5714 5714 5714 5713 5713 5713 5712 5712 5711 5710 5709 5709 5708 5707 5705 5704 5703 5702 5701 5700 5699 5697 5696